Weather Roundup
Issued by NWS Corpus Christi, TX

Home | Current Version | Previous Version | Text Only | Print | Product List | Glossary On
Versions: 1 2 3 4 5 6 7 8 9 10 11 12 13 14 15 16 17 18 19 20 21 22 23 24 25 26 27 28 29 30 31 32 33 34 35 36 37 38 39 40 41 42 43 44 45 46 47 48 49 50
000
ASUS44 KCRP 240310
HRRCRP

SOUTH TEXAS REGIONAL WEATHER ROUNDUP
NATIONAL WEATHER SERVICE CORPUS CHRISTI TX
900 PM CST THU FEB 23 2017


TXZ229>244-240400-
...CORPUS CHRISTI AREA OBSERVATIONS...

CITY           SKY/WX    TMP DP  RH WIND       PRES   REMARKS
CORPUS CHRISTI CLEAR     70  67  90 SE17      29.63R
NAS CORPUS CHR CLEAR     71  70  96 SE17      29.64R
ROCKPORT         N/A     71  67  87 SE15      29.63R
KINGSVILLE NAS CLEAR     71  69  93 SE15      29.62R
ALICE          CLEAR     70  66  87 SE14      29.62R
ORANGE GROVE   CLEAR     70  68  93 SE14      29.64R
FALFURRIAS     CLEAR    N/A N/A N/A E8        29.62R
$$

...VICTORIA AREA OBSERVATIONS...

CITY           SKY/WX    TMP DP  RH WIND       PRES   REMARKS
VICTORIA       CLOUDY    69  67  93 SE15      29.65S
BEEVILLE       FAIR      70  70 100 SE10      29.63S
PLEASANTON     CLEAR     71  60  69 SE12      29.61R
SAN ANTONIO    CLEAR     70  61  73 SE10      29.63R
$$

...LAREDO AREA OBSERVATIONS...

CITY           SKY/WX    TMP DP  RH WIND       PRES   REMARKS
LAREDO         PTCLDY    80  47  31 SE13      29.58R
COTULLA        PTCLDY    77  51  40 SE12      29.57R
DEL RIO        CLEAR     73  41  31 CALM      29.56R
MCALLEN        CLEAR     75  62  64 SE15      29.62R
HEBBRONVILLE   CLEAR     76  45  33 SE7       29.63R
$$

...OTHER TEXAS OBSERVATIONS...

CITY           SKY/WX    TMP DP  RH WIND       PRES   REMARKS
BROWNSVILLE    CLEAR     72  68  87 SE13      29.63R
HOUSTON        CLEAR     67  61  81 S12       29.67S
COL. STATION   CLEAR     69  61  75 S13       29.64R
AUSTIN         CLEAR     69  60  73 S9        29.62R
WACO           CLEAR     71  59  65 S15       29.57R
FORT WORTH     PTCLDY    77  57  50 S20G28    29.50R
WICHITA FALLS  CLOUDY    70  38  31 SW10      29.46R
LUBBOCK        CLEAR     64  12  13 W22G29    29.61R
EL PASO        CLEAR     62  -1   8 W18G30    29.79R
$$

...MARINE OBSERVATIONS...

STATION/POSITION TIME  SKY/WX   TEMP    WIND        PRES    VSBY  WAVE   SWELL
                                AIR SEA DIR/SP/G                  HT/PER HT/PER
                 (UTC)          (F)     (DEG/KT/KT) (MB)    (MI)  (FT/S) (FT/S)
PORT ARANSAS     0200            71 72  120/ 18/ 20 1003.0R
BUOY 90 E PORT A 0150            72 69  140/ 16/ 19 1005.3          4/ 5
BUOY 45 SE BAFFI 0150            74     130/ 17/ 21 1002.8          4/ 5
BUOY 200 E PT IS 0150            73 74  130/ 16/ 17 1006.8          2/ 4
BUOY 15 E GALVES 0150            67 66  150/ 16/ 17 1005.5          2/ 5
$$



USA.gov is the U.S. government's official web portal to all federal, state and local government web resources and services.